Weather in Purovsk

Russia / Yamalo-Nenets Autonomous Okrug     64°56′33″N   77°36′28″E
temp.,
°C
wind,
m/s
gust,
m/s
humid.,
%
clouds,
%
prec.,
mm/h
press.,
hPa
HPBL,
m
27 february, sat
sat2723:00−27wsw239894 0.1 102325
02:00−27wsw229893 0.1 102319
05:00−27wsw119892 0.1 102319
08:00−28wnw119990 0.1 102319
11:00−25n119489 0.1 1023150
14:00−25n119191 0.0 1024200
17:00−30nnw1210062 0.0 102519
20:00−32ne1110044 0.0 102519
28 february, sun
sun2823:00−33ese0010048 0.0 102619
02:00−32sse2210044 0.0 102619
05:00−33sse2210029 0.0 102719
08:00−32sse339726 0.0 102719
11:00−27sse349330 0.0 1027202
14:00−25sse349264 0.0 1028254
17:00−28sse349638 0.0 102719
20:00−30sse45981 0.0 102726
1 march, mon
mon123:00−30s44982 0.0 102721
02:00−30s34990 0.0 102619
05:00−30s34982 0.0 102619
08:00−30s44950 0.0 102632
11:00−25s469322 0.0 1025221
14:00−23s469392 0.0 1023256
17:00−26s459495 0.0 102333
20:00−27s5692100 0.0 102269
2 march, tue
tue223:00−27s699381 0.0 102187
02:00−28s569382 0.0 102068
05:00−28s699361 0.0 102087
08:00−28s6109332 0.0 1019135
11:00−23s8118966 0.0 1020307
14:00−21s81287100 0.0 1019341
17:00−22s71288100 0.0 1018256
20:00−23s7138799 0.0 1018222
3 march, wed
wed323:00−24s81287100 0.0 1018247
02:00−26s61190100 0.0 1018182
05:00−27sse71194100 0.0 1018164
08:00−26sse81294100 0.0 1017237
11:00−23s91391100 0.0 1017344
14:00−20s9138978 0.0 1017412
17:00−21sse8149289 0.0 1016288
20:00−22s8159386 0.0 1016266